Regional Weather Roundup
Issued by NWS Midland/Odessa, TX

Skip options and go directly to product.
Home | Oldest Version | Previous Version | Current Version | All | Graphics & Text | Save Text | Print | Product List | Glossary On

Skip product version selection by date and time.   
552
ASUS44 KMAF 032010
RWRMAF
MIDLAND AREA WEATHER ROUNDUP
NATIONAL WEATHER SERVICE MIDLAND TX
200 PM CST TUE MAR 03 2015

...IN SOUTHWEST TEXAS AND SOUTHEAST NEW MEXICO...

CITY           SKY/WX    TMP DP  RH WIND       PRES   REMARKS
ALPINE         FAIR      71  36  28 SW24      29.92F
ANDREWS        FAIR      53  46  74 NE3       29.85F
ARTESIA        DRIZZLE   45  45 100 CALM      29.88F
BIG SPRING     FAIR     N/A N/A N/A CALM      29.85F
CARLSBAD       PTSUNNY   52  39  61 NW17      29.85F
DRYDEN           N/A     61  46  57 SE8       29.83F
FORT STOCKTON  FAIR      61  45  55 NE9       29.81F
GUAD PASS      NOT AVBL
HOBBS          MOSUNNY   55  45  67 NE5       29.86F
MARFA          FAIR      70  36  28 SW25G32   29.92F
MIDLAND AIRPK  FAIR      57  47  70 NE3       29.85F
MIDLAND INTL   FAIR      58  48  69 CALM      29.83F
ODESSA         FAIR      56  47  71 NE5       29.84F
PECOS          FAIR      59  45  60 CALM      29.81F
PRESIDIO       FAIR      75  39  26 CALM      29.81F
SEMINOLE       FAIR      57  43  59 N3        29.85F
SNYDER         CLOUDY    49  46  91 SW6       29.85F
WINK           FAIR      61  41  47 VRB7      29.81F
$$
...OTHER STATIONS IN TEXAS...

CITY           SKY/WX    TMP DP  RH WIND       PRES   REMARKS
ABILENE        CLOUDY    56  48  74 S12       29.84F
AMARILLO       CLOUDY    57  29  34 W7        29.82F
AUSTIN         FOG       55  55 100 S7        29.89F VSB 1/2
BROWNSVILLE    PTSUNNY   79  67  66 S21G31    29.88F
CORPUS CHRISTI CLOUDY    65  63  93 W7        29.90F FOG
DALLAS FTW     CLOUDY    49  48  97 E3        29.88F FOG
DEL RIO        CLOUDY    58  49  72 SE8       29.85F
EL PASO        CLOUDY    57  47  69 SW10      29.89F
HOUSTON INT    PTSUNNY   79  65  62 S15G23    29.91F
LUBBOCK        PTSUNNY   58  41  53 W3        29.83F
SAN ANGELO     FAIR      62  51  67 S12G22    29.83F
SAN ANTONIO    CLOUDY    57  54  89 S3        29.91F FOG
WACO           CLOUDY    47  46  97 CALM      29.89F FOG
WICHITA FALLS  NOT AVBL
$$
...OTHER LOCATIONS IN NEW MEXICO...

CITY           SKY/WX    TMP DP  RH WIND       PRES   REMARKS
ALAMAGORDO     FAIR      55  45  67 S8        29.90S
ALBUQUERQUE    FAIR      48  27  44 CALM      29.84F
CANNON AFB     DRIZZLE   51  40  67 W9        29.83F
CLOVIS         CLOUDY    52  39  62 W14       29.84F
HOLLOMAN AFB   PTSUNNY   55  48  76 SW10      29.88F
ROSWELL        PTSUNNY   52  40  63 N3        29.85F
RUIDOSO        FAIR      48  37  66 SW21G29   29.88F
SANTA FE       PTSUNNY   43  25  49 VRB7G17   29.83F WCI  39
TRUTH OR CONSE FAIR      58  40  51 S17G23    29.83F
TUCUMCARI      CLOUDY    55  32  41 W10       29.78F
$$

USA.gov is the U.S. government's official web portal to all federal, state and local government web resources and services.